{"data":{"norad_id":48077,"epoch":"2026-05-24T22:48:00.302400Z","epoch_age_seconds":75984,"freshness":"FRESH","line1":"1 48077U 21025AM  26144.95000350  .00000356  00000+0  94083-3 0  9995","line2":"2 48077  87.8941 324.8511 0001859  95.2190 264.9151 13.13468446249258","mean_motion":13.13468446,"eccentricity":0.0001859,"inclination_deg":87.8941,"raan_deg":324.8511,"arg_perigee_deg":95.219,"mean_anomaly_deg":264.9151,"bstar":0.00094083,"rev_number":24925,"period_min":109.63339122347,"perigee_km":1208.3607926985,"apogee_km":1211.181977036,"semimajor_km":7587.9083848673,"source":"CELESTRAK","updated_at":"2026-05-25T13:38:22.395350Z"}}